Tracking 18942 objects as of 17-Jan-2018
HD Live streaming from Space Station
objects crossing your sky now

BEESAT

Track BEESAT now!
10-day predictions
BEESAT is classified as:


NORAD ID: 35933
Int'l Code: 2009-051C
Perigee: 708.8 km
Apogee: 716.3 km
Inclination: 98.5 °
Period: 98.9 minutes
Semi major axis: 7083 km
RCS: 0.033 m2 (small)
Launch date: September 23, 2009
Source: Germany (GER)
Launch site: SRIHARIKOTA (SRI)
Uplink (MHz):
Downlink (MHz): 436.000
Beacon (MHz): 436.000
Mode: 9600/4800bps GMSK
Call sign: DP0BEE
Status: Active


BEESAT is a a cubesat satellite built by student teams to test new attitude control systems.
aabbcc
Your satellite tracking list
Your tracking list is empty




NASA's NSSDC Master Catalog

Two Line Element Set (TLE):
1 35933U 09051C   18016.88939312  .00000088  00000-0  30760-4 0  9993
2 35933  98.5260 166.0652 0005235 338.2013  21.8961 14.56220137441520
Source of the keplerian elements: Caltech